User: anonymous   Login
Location: Unspecified
(40.7945°N, 0.0000°E)
Time: 21:09:22
(UTC+00:00)
Language:

Explorer 11/Cluster Stage 4 - Orbit

View from above orbital plane
View from above orbital plane
View from above satellite
View from above satellite

Ground track
Ground track

The orbit data is extracted from the following two-line orbital elements,

1   107U 61013A   21021.36475452  .00000658  00000-0  66898-4 0  9991
2   107  28.7926  30.6445 0545926 292.4243  61.9394 14.09095875996535
Epoch (UTC): 21 January 2021 08:45:14
Eccentricity: 0.0545926
inclination: 28.7926°
perigee height: 467 km
apogee height: 1258 km
right ascension of ascending node: 30.6445°
argument of perigee: 292.4243°
revolutions per day: 14.09095875
mean anomaly at epoch: 61.9394°
orbit number at epoch: 99653

The dashed part of the orbit path shows where the satellite is in the earth's shadow,  

DLR